Home > Weather > Monticello > Past weeks

Flag for USA Past Weather in Monticello, Kentucky, USA — Yesterday and Last 2 Weeks

Now
65 °F

Partly cloudy.


Feels Like: 65 °F
Forecast: 64 / 83 °F
Wind: No wind

Location: London-Corbin Airport-Magee Field

Current Time: May 30, 2016 at 4:50:25 AM

Latest Report: May 30, 2016 at 3:53 AM


Visibility: 8 mi

Pressure: 30.01 "Hg

Humidity: 91%

Dew Point: 62 °F

Location of MonticelloLocation

Past Weather in Monticello — Graph

°F

Monticello Temperature Yesterday

Maximum temperature yesterday: 84 °F (at 2:53 PM)
Minimum temperature yesterday: 65 °F (at 5:53 AM)
Average temperature yesterday: 74 °F

High & Low Weather Summary for the Past Weeks

 TemperatureHumidityPressure
High84 °F (May 27, 3:53 PM)97% (May 18, 1:53 AM)30.29 "Hg (May 18, 1:53 AM)
Low38 °F (May 15, 6:53 AM)27% (May 24, 4:53 PM)29.93 "Hg (May 22, 6:53 PM)
Average62 °F72%30.08 "Hg
* Reported May 15 2:53 AM — May 30 2:53 AM, Monticello, Weather by CustomWeather, © 2016

Note: Actual official high and low records may vary slightly from our data, if they occured in-between our weather recording intervals... More about our weather records

Advertising

Monticello Weather History for the Previous 24 Hours

Scroll right to see more
 ConditionsComfort  
Time TempWeatherWind HumidityBarometerVisibility
2:53 AM
Mon, May 30
66 °FPassing clouds.No wind87%30.01 "Hg9 mi
1:53 AM66 °FClear.No wind87%30.01 "Hg10 mi
12:53 AM67 °FClear.No wind87%30.02 "Hg9 mi
11:53 PM
Sun, May 29
70 °FClear.No wind79%30.02 "Hg10 mi
10:53 PM71 °FPassing clouds.No wind78%30.03 "Hg10 mi
9:53 PM73 °FClear.No wind74%30.03 "Hg10 mi
8:53 PM76 °FPassing clouds.3 mph64%30.01 "Hg10 mi
7:53 PM82 °FSunny.6 mph49%30.02 "Hg10 mi
6:53 PM84 °FPartly sunny.3 mph48%30.02 "Hg10 mi
5:53 PM83 °FSunny.No wind50%30.03 "Hg10 mi
4:53 PM84 °FPartly sunny.No wind48%30.04 "Hg10 mi
3:53 PM82 °FSunny.No wind51%30.07 "Hg10 mi
2:53 PM84 °FPassing clouds.7 mph48%30.08 "Hg10 mi
1:53 PM81 °FSunny.3 mph51%30.10 "Hg10 mi
12:53 PM80 °FSunny.3 mph52%30.11 "Hg10 mi
11:53 AM77 °FSunny.7 mph64%30.13 "Hg10 mi
10:53 AM75 °FMostly cloudy.No wind66%30.13 "Hg10 mi
9:53 AM72 °FMostly cloudy.No wind76%30.13 "Hg10 mi
8:53 AM70 °FSunny.5 mph81%30.12 "Hg10 mi
7:53 AM66 °FPartly sunny.No wind90%30.12 "Hg8 mi
6:53 AM65 °FFog.No wind94%30.11 "Hg6 mi
5:53 AM65 °FFog.No wind91%30.11 "Hg6 mi
4:53 AM66 °FPassing clouds.No wind90%30.09 "Hg7 mi
Weather by CustomWeather, © 2016

See weather overviewHow to use our weather pages